W6MAF Weather Reports


Display with metric or nautical units.
time (UTC)temp
F
wind
direction
speed
MPH
gust
MPH
rain 1hr
in
rain 24hr
in
rain mn
in
humidity
%
barometer
mb
20210615012239 88 158 14.0 12.0 0.00 0.00 0.00 6 1014.7
20210615012135 92 190 15.0 10.0 0.00 0.00 0.00 5 1014.8
20210615011740 89 173 13.0 14.0 0.00 0.00 0.00 6 1014.7
20210615011243 89 169 15.0 14.0 0.00 0.00 0.00 6 1014.7
20210615010745 89 180 15.0 10.0 0.00 0.00 0.00 6 1014.7
20210615010246 89 173 10.0 11.0 0.00 0.00 0.00 6 1014.7
20210615005745 89 180 15.0 11.0 0.00 0.00 0.00 6 1014.7
20210615005247 90 176 13.0 14.0 0.00 0.00 0.00 6 1014.8
20210615004750 90 187 15.0 15.0 0.00 0.00 0.00 6 1014.7
20210615004252 90 159 11.0 15.0 0.00 0.00 0.00 6 1014.7
20210615003754 91 177 14.0 14.0 0.00 0.00 0.00 6 1014.7
20210615003256 91 148 18.0 13.0 0.00 0.00 0.00 5 1014.7
20210615002755 91 167 17.0 13.0 0.00 0.00 0.00 5 1014.7
20210615002257 92 149 17.0 13.0 0.00 0.00 0.00 5 1014.7
20210615001800 92 160 12.0 17.0 0.00 0.00 0.00 5 1014.7
20210615001302 92 148 16.0 12.0 0.00 0.00 0.00 5 1014.7
20210615000804 92 159 17.0 15.0 0.00 0.00 0.00 5 1014.8
20210614235805 92 190 15.0 10.0 0.00 0.00 0.00 5 1014.8
20210614235307 92 180 18.0 18.0 0.00 0.00 0.00 5 1014.8
20210614234810 92 181 17.0 15.0 0.00 0.00 0.00 5 1014.8
20210614234312 93 198 17.0 17.0 0.00 0.00 0.00 5 1015.0
20210614233814 93 186 18.0 14.0 0.00 0.00 0.00 5 1015.1
20210614233321 92 179 16.0 12.0 0.00 0.00 0.00 5 1015.1
20210614232321 92 176 18.0 18.0 0.00 0.00 0.00 5 1015.1
20210614231819 93 169 19.0 20.0 0.00 0.00 0.00 5 1015.1
20210614231320 93 180 18.0 21.0 0.00 0.00 0.00 5 1015.2
20210614230822 93 163 15.0 17.0 0.00 0.00 0.00 5 1015.2
20210614230324 93 158 16.0 15.0 0.00 0.00 0.00 5 1015.2
20210614230301 94 160 14.0 15.0 0.00 0.00 0.00 5 1015.4
20210614225822 93 159 13.0 15.0 0.00 0.00 0.00 5 1015.2
20210614225324 93 203 17.0 21.0 0.00 0.00 0.00 4 1015.2
20210614224827 93 179 20.0 18.0 0.00 0.00 0.00 5 1015.3
20210614224329 93 174 18.0 22.0 0.00 0.00 0.00 5 1015.3
20210614223928 93 180 21.0 22.0 0.00 0.00 0.00 5 1015.4
20210614223831 94 191 19.0 12.0 0.00 0.00 0.00 5 1015.4
20210614223333 94 195 15.0 12.0 0.00 0.00 0.00 5 1015.3
20210614223036 93 184 18.0 22.0 0.00 0.00 0.00 5 1015.5
20210614222832 94 170 19.0 19.0 0.00 0.00 0.00 5 1015.4
20210614222334 94 195 16.0 18.0 0.00 0.00 0.00 5 1015.4
20210614221923 94 184 17.0 15.0 0.00 0.00 0.00 4 1015.5
20210614221836 94 184 17.0 15.0 0.00 0.00 0.00 4 1015.5
20210614221338 94 160 14.0 15.0 0.00 0.00 0.00 5 1015.4
20210614221119 93 174 19.0 19.0 0.00 0.00 0.00 5 1015.5
20210614220840 94 184 16.0 18.0 0.00 0.00 0.00 4 1015.4
20210614220343 93 205 19.0 17.0 0.00 0.00 0.00 4 1015.4
20210614215842 93 198 17.0 16.0 0.00 0.00 0.00 5 1015.5
20210614215344 93 180 21.0 22.0 0.00 0.00 0.00 5 1015.4
20210614215136 93 135 17.0 11.0 0.00 0.00 0.00 5 1015.5
20210614214846 93 184 18.0 22.0 0.00 0.00 0.00 5 1015.5
20210614214348 93 186 19.0 19.0 0.00 0.00 0.00 5 1015.4
20210614213853 93 172 17.0 18.0 0.00 0.00 0.00 5 1015.4
20210614213849 93 172 17.0 18.0 0.00 0.00 0.00 5 1015.4
20210614213352 92 172 17.0 16.0 0.00 0.00 0.00 5 1015.5
20210614212851 93 208 20.0 17.0 0.00 0.00 0.00 5 1015.5
20210614212353 93 174 19.0 19.0 0.00 0.00 0.00 5 1015.5
20210614211855 94 180 18.0 23.0 0.00 0.00 0.00 5 1015.5
20210614211518 93 174 18.0 22.0 0.00 0.00 0.00 5 1015.7
20210614211357 94 225 19.0 20.0 0.00 0.00 0.00 5 1015.7
20210614210859 94 187 16.0 19.0 0.00 0.00 0.00 5 1015.7
20210614210401 93 135 17.0 11.0 0.00 0.00 0.00 5 1015.5
20210614205900 93 177 19.0 23.0 0.00 0.00 0.00 5 1015.5
20210614205403 93 162 19.0 13.0 0.00 0.00 0.00 5 1015.5
20210614204904 93 190 19.0 23.0 0.00 0.00 0.00 5 1015.5
20210614204407 93 169 13.0 21.0 0.00 0.00 0.00 5 1015.5
20210614203909 93 128 18.0 10.0 0.00 0.00 0.00 5 1015.5
20210614203410 93 225 18.0 15.0 0.00 0.00 0.00 5 1015.7
20210614202909 93 176 19.0 13.0 0.00 0.00 0.00 5 1015.7
20210614202411 93 174 18.0 22.0 0.00 0.00 0.00 5 1015.7
20210614201913 93 184 15.0 14.0 0.00 0.00 0.00 5 1015.7
20210614201415 93 181 15.0 16.0 0.00 0.00 0.00 5 1015.7
20210614200918 93 181 21.0 16.0 0.00 0.00 0.00 5 1015.8
20210614200420 93 200 15.0 14.0 0.00 0.00 0.00 5 1015.8
20210614195918 92 159 16.0 15.0 0.00 0.00 0.00 5 1015.9
20210614195420 92 207 20.0 20.0 0.00 0.00 0.00 5 1015.9
20210614194922 92 201 16.0 15.0 0.00 0.00 0.00 5 1015.9
20210614194455 91 170 17.0 15.0 0.00 0.00 0.00 5 1016.0
20210614194424 92 183 20.0 22.0 0.00 0.00 0.00 5 1015.9
20210614193927 92 193 14.0 16.0 0.00 0.00 0.00 5 1015.9
20210614193430 92 200 21.0 18.0 0.00 0.00 0.00 5 1015.9
20210614193244 92 183 20.0 13.0 0.00 0.00 0.00 5 1016.0
20210614193129 92 169 16.0 13.0 0.00 0.00 0.00 5 1016.1
20210614192927 92 179 17.0 18.0 0.00 0.00 0.00 5 1015.8
20210614192429 92 195 16.0 15.0 0.00 0.00 0.00 5 1015.9
20210614191932 91 169 16.0 14.0 0.00 0.00 0.00 5 1015.9
20210614191433 91 170 17.0 15.0 0.00 0.00 0.00 5 1016.0
20210614190939 0 0.0 0.0 0.00 0.00 0.00
20210614190935 91 174 14.0 11.0 0.00 0.00 0.00 5 1016.0
20210614190438 92 181 20.0 16.0 0.00 0.00 0.00 5 1016.0
20210614185937 92 183 20.0 13.0 0.00 0.00 0.00 5 1016.0
20210614185440 92 169 16.0 13.0 0.00 0.00 0.00 5 1016.1
20210614185421 93 181 12.0 13.0 0.00 0.00 0.00 5 1015.9
20210614184941 92 195 15.0 13.0 0.00 0.00 0.00 5 1016.0
20210614184444 92 187 11.0 14.0 0.00 0.00 0.00 5 1016.0
20210614183945 93 181 14.0 13.0 0.00 0.00 0.00 5 1016.0
20210614183448 93 197 13.0 14.0 0.00 0.00 0.00 5 1015.9
20210614182947 93 210 16.0 9.0 0.00 0.00 0.00 5 1016.0
20210614182449 93 181 12.0 13.0 0.00 0.00 0.00 5 1015.9
20210614181951 93 188 13.0 12.0 0.00 0.00 0.00 5 1015.9
20210614181453 93 207 14.0 10.0 0.00 0.00 0.00 5 1015.9
20210614180957 93 203 15.0 8.0 0.00 0.00 0.00 5 1015.9
20210614180458 92 218 9.0 11.0 0.00 0.00 0.00 5 1015.8
20210614175957 93 214 10.0 16.0 0.00 0.00 0.00 5 1015.8
20210614175459 93 181 10.0 10.0 0.00 0.00 0.00 5 1015.8
20210614175001 92 242 8.0 8.0 0.00 0.00 0.00 6 1015.7
20210614174503 92 183 6.0 13.0 0.00 0.00 0.00 6 1015.7
20210614174005 91 73 0.0 0.0 0.00 0.00 0.00 3 1015.7
20210614173508 91 190 12.0 10.0 0.00 0.00 0.00 6 1015.7
20210614173007 91 166 6.0 6.0 0.00 0.00 0.00 7 1015.7
20210614172932 89 186 7.0 7.0 0.00 0.00 0.00 8 1015.7
20210614172756 88 125 6.0 7.0 0.00 0.00 0.00 10 1015.7
20210614172509 90 188 6.0 9.0 0.00 0.00 0.00 7 1015.7
20210614172119 87 63 1.0 0.0 0.00 0.00 0.00 12 1015.7
20210614172011 89 172 8.0 6.0 0.00 0.00 0.00 8 1015.7
20210614171514 89 162 9.0 7.0 0.00 0.00 0.00 8 1015.7
20210614171016 89 146 9.0 14.0 0.00 0.00 0.00 9 1015.7
20210614170905 86 131 5.0 6.0 0.00 0.00 0.00 12 1015.7
20210614170556 85 101 1.0 0.0 0.00 0.00 0.00 12 1015.7
20210614170518 89 186 7.0 7.0 0.00 0.00 0.00 8 1015.7
20210614170321 85 135 0.0 4.0 0.00 0.00 0.00 11 1015.8
20210614170017 88 125 6.0 7.0 0.00 0.00 0.00 10 1015.7
20210614165519 88 103 6.0 6.0 0.00 0.00 0.00 11 1015.5
20210614165021 87 89 3.0 7.0 0.00 0.00 0.00 11 1015.7
20210614164523 87 63 1.0 0.0 0.00 0.00 0.00 12 1015.7
20210614164026 86 131 5.0 6.0 0.00 0.00 0.00 12 1015.7
20210614163528 86 84 5.0 4.0 0.00 0.00 0.00 12 1015.7
20210614163027 85 101 1.0 0.0 0.00 0.00 0.00 12 1015.7
20210614162529 85 107 2.0 3.0 0.00 0.00 0.00 12 1015.8
20210614162031 85 135 0.0 4.0 0.00 0.00 0.00 11 1015.8
20210614161534 85 121 0.0 0.0 0.00 0.00 0.00 12 1015.8
20210614161036 84 132 1.0 3.0 0.00 0.00 0.00 12 1015.8
20210614160538 84 150 0.0 0.0 0.00 0.00 0.00 11 1015.8
20210614160037 84 201 2.0 0.0 0.00 0.00 0.00 12 1015.8
20210614155539 83 211 3.0 0.0 0.00 0.00 0.00 12 1015.7
20210614155042 83 111 0.0 0.0 0.00 0.00 0.00 12 1015.8
20210614154821 80 118 4.0 5.0 0.00 0.00 0.00 15 1015.3
20210614154544 83 111 2.0 0.0 0.00 0.00 0.00 12 1015.7
20210614154046 82 113 1.0 0.0 0.00 0.00 0.00 13 1015.7
20210614153549 81 155 0.0 0.0 0.00 0.00 0.00 14 1015.5
20210614153307 80 229 0.0 0.0 0.00 0.00 0.00 15 1015.3
20210614153047 81 155 3.0 0.0 0.00 0.00 0.00 14 1015.5
20210614152549 80 103 1.0 5.0 0.00 0.00 0.00 14 1015.5
20210614152052 80 100 6.0 3.0 0.00 0.00 0.00 14 1015.5
20210614151554 80 101 2.0 0.0 0.00 0.00 0.00 15 1015.4
20210614151056 80 118 4.0 5.0 0.00 0.00 0.00 15 1015.3
20210614150558 80 229 0.0 0.0 0.00 0.00 0.00 15 1015.3
20210614150059 80 229 0.0 0.0 0.00 0.00 0.00 15 1015.2
20210614145601 79 229 0.0 0.0 0.00 0.00 0.00 16 1015.2
20210614145102 78 229 0.0 0.0 0.00 0.00 0.00 17 1015.1
20210614144106 78 229 0.0 0.0 0.00 0.00 0.00 18 1015.0
20210614143609 77 229 0.0 0.0 0.00 0.00 0.00 19 1015.0
20210614143108 77 229 0.0 0.0 0.00 0.00 0.00 19 1015.0
20210614142610 76 229 0.0 0.0 0.00 0.00 0.00 21 1015.0
20210614142112 75 229 0.0 0.0 0.00 0.00 0.00 21 1014.8
20210614141614 74 229 0.0 0.0 0.00 0.00 0.00 22 1014.7
20210614141119 73 229 0.0 0.0 0.00 0.00 0.00 24 1014.7
20210614140619 72 229 0.0 0.0 0.00 0.00 0.00 25 1014.7
20210614140207 71 229 0.0 0.0 0.00 0.00 0.00 25 1014.6
20210614140118 71 229 0.0 0.0 0.00 0.00 0.00 25 1014.6
20210614135753 69 229 0.0 0.0 0.00 0.00 0.00 26 1014.6
20210614135620 69 229 0.0 0.0 0.00 0.00 0.00 26 1014.6
20210614135122 68 229 0.0 0.0 0.00 0.00 0.00 26 1014.5
20210614134625 67 229 0.0 0.0 0.00 0.00 0.00 27 1014.5
20210614134142 66 229 0.0 0.0 3.00 0.00 0.00 27
20210614134127 66 229 0.0 0.0 0.00 0.00 0.00 27 1014.5
20210614133629 65 229 0.0 0.0 0.00 0.00 0.00 28 1014.4
20210614133130 64 229 0.0 0.0 0.00 0.00 0.00 28 1014.4
20210614132630 63 229 0.0 0.0 0.00 0.00 0.00 28 1014.4
20210614132132 63 229 0.0 0.0 0.00 0.00 0.00 29 1014.4
20210614131636 63 229 0.0 0.0 0.00 0.00 0.00 28 1014.4
20210614131216 62 229 0.0 0.0 0.00 0.00 0.00 28 1014.4
20210614131137 62 229 0.0 0.0 0.00 0.00 0.00 28 1014.4
20210614130137 62 229 0.0 0.0 0.00 0.00 0.00 29 1014.3
20210614125639 61 229 0.0 0.0 0.00 0.00 0.00 29 1014.4
20210614125142 61 229 0.0 0.0 0.00 0.00 0.00 30 1014.3
20210614124644 61 229 0.0 0.0 0.00 0.00 0.00 30 1014.3
20210614124146 61 229 0.0 0.0 0.00 0.00 0.00 30 1014.3
20210614123648 61 229 0.0 0.0 0.00 0.00 0.00 30 1014.2
20210614123146 61 229 0.0 0.0 0.00 0.00 0.00 30 1014.2
20210614122649 61 229 0.0 0.0 0.00 0.00 0.00 30 1014.0
20210614122152 61 229 0.0 0.0 0.00 0.00 0.00 29 1014.0
20210614121734 62 262 6.0 6.0 0.00 0.00 0.00 29 1014.0
20210614121653 62 262 6.0 6.0 0.00 0.00 0.00 29 1014.0
20210614121235 62 262 7.0 7.0 0.00 0.00 0.00 29 1014.0
20210614121155 62 262 7.0 7.0 0.00 0.00 0.00 29 1014.0
20210614120657 62 249 7.0 7.0 0.00 0.00 0.00 30 1014.0
20210614120156 61 262 8.0 8.0 0.00 0.00 0.00 30 1014.2
20210614115659 61 271 8.0 7.0 0.00 0.00 0.00 31 1014.0
20210614115201 61 266 1.0 7.0 0.00 0.00 0.00 30 1014.2
20210614114703 61 228 2.0 0.0 0.00 0.00 0.00 30 1014.2
20210614114205 61 221 7.0 5.0 0.00 0.00 0.00 31 1014.2
20210614113708 61 245 8.0 8.0 0.00 0.00 0.00 31 1014.2
20210614113207 61 246 8.0 8.0 0.00 0.00 0.00 32 1014.2
20210614112709 61 240 8.0 7.0 0.00 0.00 0.00 32 1014.2
20210614112212 61 239 6.0 6.0 0.00 0.00 0.00 33 1014.2
20210614111713 61 249 8.0 8.0 0.00 0.00 0.00 33 1014.3
20210614111216 61 256 8.0 8.0 0.00 0.00 0.00 33 1014.3
20210614110718 60 255 8.0 9.0 0.00 0.00 0.00 34 1014.3
20210614110217 61 246 8.0 8.0 0.00 0.00 0.00 34 1014.4
20210614105719 61 249 8.0 8.0 0.00 0.00 0.00 34 1014.3
20210614105221 61 259 7.0 7.0 0.00 0.00 0.00 34 1014.4
20210614104722 61 263 6.0 6.0 0.00 0.00 0.00 34 1014.4
20210614104225 61 277 5.0 5.0 0.00 0.00 0.00 34 1014.4
20210614103727 61 271 6.0 7.0 0.00 0.00 0.00 35 1014.4
20210614103226 60 266 7.0 7.0 0.00 0.00 0.00 36 1014.3
20210614102728 60 266 7.0 7.0 0.00 0.00 0.00 37 1014.4
20210614102231 59 262 7.0 7.0 0.00 0.00 0.00 37 1014.4
20210614101733 60 255 7.0 6.0 0.00 0.00 0.00 37 1014.4
20210614101235 59 252 6.0 7.0 0.00 0.00 0.00 37 1014.3
20210614100737 59 257 7.0 7.0 0.00 0.00 0.00 38 1014.4
20210614100236 59 255 8.0 7.0 0.00 0.00 0.00 38 1014.3
20210614095738 60 253 7.0 7.0 0.00 0.00 0.00 37 1014.3
20210614095240 60 246 7.0 7.0 0.00 0.00 0.00 37 1014.2
20210614094742 60 249 6.0 6.0 0.00 0.00 0.00 37 1014.2
20210614094244 60 239 6.0 6.0 0.00 0.00 0.00 37 1014.3
20210614093747 61 240 7.0 7.0 0.00 0.00 0.00 37 1014.3
20210614093245 61 248 7.0 7.0 0.00 0.00 0.00 37 1014.3
20210614092747 61 239 7.0 7.0 0.00 0.00 0.00 36 1014.3
20210614092249 61 248 6.0 7.0 0.00 0.00 0.00 36 1014.4
20210614091751 61 249 7.0 6.0 0.00 0.00 0.00 36 1014.4
20210614091253 61 249 7.0 6.0 0.00 0.00 0.00 36 1014.5
20210614090756 61 250 7.0 7.0 0.00 0.00 0.00 36 1014.5
20210614090254 61 252 8.0 8.0 0.00 0.00 0.00 36 1014.5
20210614085757 62 250 8.0 8.0 0.00 0.00 0.00 36 1014.6
20210614085259 62 250 7.0 6.0 0.00 0.00 0.00 35 1014.5
20210614084802 63 243 6.0 7.0 0.00 0.00 0.00 35 1014.5
20210614084303 63 245 0.0 6.0 0.00 0.00 0.00 35 1014.6
20210614083806 63 217 0.0 0.0 0.00 0.00 0.00 34 1014.6
20210614083305 63 217 0.0 0.0 0.00 0.00 0.00 34 1014.6
20210614082807 63 217 0.0 0.0 0.00 0.00 0.00 33 1014.5
20210614081811 64 217 0.0 0.0 0.00 0.00 0.00 32 1014.5
20210614081313 65 217 0.0 0.0 0.00 0.00 0.00 31 1014.5
20210614080816 65 269 2.0 4.0 0.00 0.00 0.00 31 1014.5
20210614080315 65 281 1.0 8.0 0.00 0.00 0.00 31 1014.5
20210614075816 65 314 6.0 5.0 0.00 0.00 0.00 31 1014.5
20210614075318 65 338 5.0 5.0 0.00 0.00 0.00 31 1014.6
20210614074820 65 305 6.0 6.0 0.00 0.00 0.00 31 1014.5
20210614074323 65 290 6.0 6.0 0.00 0.00 0.00 30 1014.4
20210614073825 65 269 7.0 7.0 0.00 0.00 0.00 30 1014.5
20210614073324 65 281 5.0 7.0 0.00 0.00 0.00 31 1014.5
20210614072826 65 290 5.0 6.0 0.00 0.00 0.00 30 1014.6
20210614072328 65 274 3.0 4.0 0.00 0.00 0.00 30 1014.5
20210614071830 66 328 0.0 3.0 0.00 0.00 0.00 29 1014.6
20210614071332 67 270 0.0 0.0 0.00 0.00 0.00 29 1014.6
20210614070835 67 270 5.0 0.0 0.00 0.00 0.00 29 1014.5
20210614070333 67 231 10.0 11.0 0.00 0.00 0.00 29 1014.4
20210614065834 67 259 10.0 12.0 0.00 0.00 0.00 29 1014.4
20210614065336 67 208 10.0 8.0 0.00 0.00 0.00 29 1014.4
20210614064840 67 222 11.0 10.0 0.00 0.00 0.00 29 1014.4
20210614064341 68 228 10.0 8.0 0.00 0.00 0.00 29 1014.4
20210614063843 68 240 11.0 8.0 0.00 0.00 0.00 29 1014.4
20210614063342 69 249 11.0 10.0 0.00 0.00 0.00 28 1014.5
20210614062844 70 212 10.0 8.0 0.00 0.00 0.00 28 1014.5
20210614062346 70 236 11.0 12.0 0.00 0.00 0.00 28 1014.5
20210614061850 70 225 12.0 10.0 0.00 0.00 0.00 27 1014.5
20210614061351 71 210 11.0 12.0 0.00 0.00 0.00 27 1014.5
20210614060853 71 236 12.0 13.0 0.00 0.00 0.00 27 1014.5
20210614060352 71 217 12.0 10.0 0.00 0.00 0.00 28 1014.5
20210614055854 71 219 12.0 10.0 0.00 0.00 0.00 28 1014.5
20210614055358 71 229 14.0 14.0 0.00 0.00 0.00 28 1014.5
20210614054859 70 205 15.0 17.0 0.00 0.00 0.00 28 1014.5
20210614054401 70 210 13.0 13.0 0.00 0.00 0.00 28 1014.4
20210614053903 70 211 13.0 10.0 0.00 0.00 0.00 27 1014.5
20210614053401 70 195 13.0 14.0 0.00 0.00 0.00 28 1014.5
20210614052903 70 204 13.0 10.0 0.00 0.00 0.00 28 1014.5
20210614052406 70 225 12.0 14.0 0.00 0.00 0.00 27 1014.5
20210614051908 70 210 14.0 14.0 0.00 0.00 0.00 28 1014.5
20210614051410 70 222 11.0 12.0 0.00 0.00 0.00 28 1014.5
20210614050912 70 191 13.0 12.0 0.00 0.00 0.00 27 1014.6
20210614050410 70 225 12.0 10.0 0.00 0.00 0.00 26 1014.6
20210614045912 71 235 11.0 8.0 0.00 0.00 0.00 25 1014.5
20210614045415 71 242 11.0 11.0 0.00 0.00 0.00 24 1014.5
20210614044917 72 219 10.0 12.0 0.00 0.00 0.00 23 1014.4
20210614044419 72 240 10.0 10.0 0.00 0.00 0.00 22 1014.4
20210614043921 72 188 17.0 14.0 0.00 0.00 0.00 22 1014.4
20210614043420 72 208 12.0 15.0 0.00 0.00 0.00 21 1014.3
20210614042923 72 240 11.0 9.0 0.00 0.00 0.00 21 1014.2
20210614042425 73 229 10.0 13.0 0.00 0.00 0.00 20 1014.2
20210614041927 73 217 0.0 0.0 0.00 0.00 0.00 20 1014.0
20210614041430 74 217 0.0 0.0 0.00 0.00 0.00 19 1013.9
20210614040932 75 217 0.0 0.0 0.00 0.00 0.00 18 1013.9
20210614040432 76 217 0.0 0.0 0.00 0.00 0.00 18 1013.8
20210614035933 76 217 0.0 0.0 0.00 0.00 0.00 17 1013.8
20210614035433 76 217 0.0 0.0 0.00 0.00 0.00 18 1013.8
20210614034935 77 217 0.0 0.0 0.00 0.00 0.00 17 1013.7
20210614034437 77 217 0.0 0.0 0.00 0.00 0.00 18 1013.6
20210614033939 77 217 0.0 0.0 0.00 0.00 0.00 17 1013.6
20210614033438 77 217 0.0 0.0 0.00 0.00 0.00 17 1013.6
20210614032941 77 217 14.0 12.0 0.00 0.00 0.00 17 1013.5
20210614032443 77 210 16.0 13.0 0.00 0.00 0.00 17 1013.5
20210614031945 77 217 16.0 19.0 0.00 0.00 0.00 16 1013.6
20210614031447 77 215 16.0 16.0 0.00 0.00 0.00 16 1013.5
20210614030447 77 197 17.0 17.0 0.00 0.00 0.00 15 1013.6
20210614025950 77 195 17.0 15.0 0.00 0.00 0.00 15 1013.6
20210614025452 78 193 14.0 14.0 0.00 0.00 0.00 15 1013.6
20210614024954 78 187 14.0 11.0 0.00 0.00 0.00 15 1013.6
20210614024456 78 207 14.0 16.0 0.00 0.00 0.00 15 1013.6
20210614023958 79 176 13.0 11.0 0.00 0.00 0.00 14 1013.7
20210614023457 79 190 11.0 12.0 0.00 0.00 0.00 13 1013.6
20210614023000 79 174 11.0 14.0 0.00 0.00 0.00 13 1013.7
20210614022502 80 201 10.0 15.0 0.00 0.00 0.00 13 1013.7
20210614022004 80 174 9.0 14.0 0.00 0.00 0.00 13 1013.7
20210614021506 80 169 10.0 13.0 0.00 0.00 0.00 13 1013.7
20210614021008 80 179 11.0 13.0 0.00 0.00 0.00 13 1013.7
20210614020507 80 188 11.0 12.0 0.00 0.00 0.00 13 1013.8
20210614020010 81 172 12.0 11.0 0.00 0.00 0.00 13 1013.7
20210614015512 81 186 12.0 13.0 0.00 0.00 0.00 13 1013.7
20210614014516 81 169 11.0 9.0 0.00 0.00 0.00 13 1013.7
20210614014018 81 200 14.0 17.0 0.00 0.00 0.00 12 1013.7
20210614013517 82 205 13.0 14.0 0.00 0.00 0.00 11 1013.6
20210614013019 82 191 14.0 11.0 0.00 0.00 0.00 11 1013.6